PulseSat

PulseSat

COSMOS 2476 (744)

Last updated on March 21, 2019, 3:13 a.m. UTC

1 37867U 11064A   19078.40910846  .00000014  00000-0  00000-0 0  9995
2 37867  64.4976 162.5828 0018857 240.3570 168.4370  2.13101972 57413
UTC
Height (km)
Latitude
Longitude
Inclination
Orbital Period

Next 30 passes for location: Hong Kong

Rise time Rise Azimuth (degrees) Set time Set Azimuth (degrees) Duration Max altitude (degrees)

No matching passes for this satellites

PulseSat

PulseSat is the new satellites software and hardware trackering solution by Pulsely.
Satellite Two Line Element Set source: US Air Force Space Command

Download PulseSat for iOS
© 2017 Pulsely Limited